Location: *
(28.2408°N, 53.4600°E)
Time: 12:28:19
(UTC+00:00)

NOSS 3-4 (A) - Pass Details

Date: 22 September 2019
Orbit: 910 x 1303 km, 63.4° (Epoch: 17 October)

Event Time Altitude Azimuth Distance (km) Brightness Sun altitude
Rises 15:10:14 0° 340° (NNW) 3,924 7.0 -11.1°
Reaches altitude 10° 15:13:01 10° 348° (NNW) 3,023 6.3 -11.8°
Maximum altitude 15:19:51 42° 57° (ENE) 1,670 4.4 -13.3°
Enters shadow 15:25:40 16° 120° (ESE) 2,789 5.3 -14.5°
